Regional Weather Roundup
Issued by NWS

Home | Current Version | Previous Version | Text Only | Print | Product List | Glossary On
Versions: 1 2 3 4 5 6 7 8 9 10 11 12 13 14 15 16 17 18 19 20 21 22 23 24 25 26 27 28 29 30 31 32 33 34 35 36 37 38 39 40 41 42 43 44 45 46 47 48 49 50
372
ASUS44 KLUB 241610
RWRTX
WEST TEXAS WEATHER ROUNDUP
NATIONAL WEATHER SERVICE LUBBOCK TX
1100 AM CDT WED MAY 24 2017

NOTE: "FAIR" INDICATES FEW OR NO CLOUDS BELOW 12,000 FEET WITH NO
SIGNIFICANT WEATHER AND/OR OBSTRUCTIONS TO VISIBILITY.

TXZ004-006>008-010-012-014-016-OKZ002-241700-
TEXAS PANHANDLE/OKLAHOMA PANHANDLE

CITY           SKY/WX    TMP DP  RH WIND       PRES   REMARKS
AMARILLO       FAIR      70  36  28 SW21G26   29.91F
BORGER         FAIR      67  42  40 W8        29.89F
CANADIAN       FAIR      63  45  51 CALM      29.87F
DALHART        FAIR      69  40  34 SW22G30   29.88F
DUMAS          FAIR      64  40  40 SW18      29.89F
GUYMON         FAIR      64  43  46 SE5       29.84F
HEREFORD       FAIR      71  38  30 W21G26    29.93F
PAMPA          FAIR      67  41  38 W9        29.90F
PERRYTON       FAIR      64  42  45 SW3       29.86F
$$

TXZ026-029-035-045-048-241700-
SOUTHERN PANHANDLE/SOUTH PLAINS/ROLLING PLAINS

CITY           SKY/WX    TMP DP  RH WIND       PRES   REMARKS
CHILDRESS      FAIR      67  39  35 CALM      29.89F
SEMINOLE       FAIR      71  36  27 SW14      29.99F
LUBBOCK        FAIR      73  35  25 W17G25    29.94F
PLAINVIEW      FAIR      69  36  29 W16G23    29.92F
SNYDER         FAIR      71  40  32 W13G20    29.95F
$$

TXZ052-054-060>062-072-078-127-140-154-169-241700-
PERMIAN BASIN/CONCHO VALLEY/BIG COUNTRY/EDWARDS PLATEAU

CITY           SKY/WX    TMP DP  RH WIND       PRES   REMARKS
ABILENE        FAIR      64  46  52 W8        29.93F
BIG SPRING     FAIR      70  40  33 SW10      29.98F
BROWNWOOD      FAIR      72  46  40 W7        29.92F
JUNCTION       FAIR      73  45  36 W8        29.96F
MIDLAND        FAIR      72  39  30 SW13      29.98F
ODESSA         FAIR      71  38  29 SW12      29.99F
SAN ANGELO     FAIR      75  44  33 W9        29.95F
SONORA         FAIR      72  41  33 W8        30.02F
SWEETWATER     FAIR      67  47  48 W12       29.97F
WINK           FAIR      73  35  25 SW12      29.97F
$$

TXZ055-058-074-075-080-082-241700-
FAR WEST/SOUTHWEST MOUNTAINS/TRANS PECOS

CITY           SKY/WX    TMP DP  RH WIND       PRES   REMARKS
ALPINE         FAIR      71  28  20 S10G17    30.09F
DRYDEN           N/A     75  37  25 SE3       29.96F
EL PASO        FAIR      69  40  34 S6        30.01F
FORT STOCKTON  FAIR      72  33  24 S7        29.99F
GUADALUPE PASS FAIR      63  39  41 SW20      30.07F
MARFA          FAIR      68  33  27 S9        30.08F
PECOS          FAIR      74  37  26 SE3       29.98F
PRESIDIO       FAIR      71  41  34 S7        30.03F
$$

TXZ014-016-019-021>030-083-241700
TEXAS TECH WEST TEXAS MESONET/TEXAS PANHANDLE/NORTHERN SOUTH PLAINS

CITY           SKY/WX    TMP DP  RH WIND       PRES   REMARKS
ABERNATHY 5ENE   N/A     70  36  29 W16       29.94F
AMARILLO 9NNE    N/A     70  38  31 W16       29.89F
AMARILLO 7SSE    N/A     71  37  29 SW17      29.92F
AMHERST 1NE      N/A     70  35  27 SW16      29.94F
BOOTLEG 11WNW    N/A     66  38  35 SW22      29.96F
CANADIAN 6E      N/A     64  44  47 W2        29.86F
CAPROCK CYN SP   N/A     72  36  26 W13       29.90F
CHILDRESS 2NNE   N/A     69  40  35 SW2       29.89F
CLARENDON 2WSW   N/A     68  38  33 SW8       29.89F
CLAUDE 12SW      N/A     69  35  28 SW10      29.91F
DIMMITT 2NE      N/A     67  37  32 SW22      29.93F
FLOYDADA 2NNE    N/A     70  34  26 W16       29.92F
FRIONA 2NE       N/A     67  38  34 SW21      29.94F
GOODLETT 3W      N/A     69  38  33 W2        29.88F
HART 3N          N/A     68  39  35 W20       29.93F
HEREFORD 2NW     N/A     68  35  29 SW21      29.92F
MCLEAN 1E        N/A     68  38  33 W9        29.88F
MEMPHIS 1NE      N/A     68  40  35 S3        29.88F
MULESHOE 2SSW    N/A     69  37  31 SW20      29.95F
OLTON 6S         N/A     70  36  28 SW20      29.93F
PALO DURO SP     N/A     71  38  30 W10       29.92F
PAMPA 2E         N/A     67  41  38 W9        29.89F
PLAINVIEW 1S     N/A     69  36  30 SW14      29.92F
SILVERTON 7ESE   N/A     72  36  27 W15       29.91F
TULIA 2ENE       N/A     69  38  32 W21       29.92F
TURKEY 2WSW      N/A     72  38  28 W8        29.89F
UMBARGER 3NNE    N/A     70  37  29 SW23      29.92F
$$

TXZ033>036-039>041-045>048-241700
TEXAS TECH WEST TEXAS MESONET/SOUTH PLAINS

CITY           SKY/WX    TMP DP  RH WIND       PRES   REMARKS
AIKEN 3WSW       N/A     71  36  28 W17       29.94F
ANDREWS 2NE      N/A     71  36  27 SW10      29.99F
ANTON 6SSW       N/A     71  37  29 SW16      29.94F
BROWNFIELD 2S    N/A     72  35  25 SW14      29.96F
DENVR CTY 7WNW   N/A     69  34  27 SW14      29.97F
GAIL 2ESE        N/A     74  36  25 SW10      29.93F
LAMESA 2SE       N/A     72  37  28 W9        29.96F
LEVELLAND 4S     N/A     72  34  25 SW14      29.95F
LUBBOCK 3WNW     N/A     72  37  27 SW12      29.94F
MORTON 1ENE      N/A     71  34  25 SW15      29.95F
ODONNELL 1N      N/A     72  33  23 SW13      29.95F
PLAINS 3N        N/A     71  33  25 SW14      29.97F
RALLS 1SE        N/A     70  37  30 W13       29.94F
REESE CENTER     N/A     70  34  26 W15       29.94F
SEAGRAVES 1SW    N/A     72  35  26 SW14      29.97F
SEMINOLE 2NNE    N/A     71  34  25 SW10      29.97F
SLATON 2NE       N/A     71  36  28 W14       29.95F
SNYDER 3E        N/A     72  40  31 W10       29.94F
SUNDOWN 8SW      N/A     72  34  25 SW14      29.96F
TAHOKA 3NNE      N/A     72  34  25 W12       29.94F
WOLFFORTH 6SSW   N/A     72  33  23 SW14      29.95F
$$

TXZ031-032-036>038-042>044-241700-
TEXAS TECH WEST TEXAS MESONET/ROLLING PLAINS

CITY           SKY/WX    TMP DP  RH WIND       PRES   REMARKS
ASPERMONT 3NE    N/A     72  41  33 W5        29.91F
FLUVANNA 3WNW    N/A     71  37  29 W13       29.94F
GRAHAM 5SSW      N/A     72  36  26 SW13      29.94F
GUTHRIE 10WSW    N/A     73  43  34 W8        29.90F
JAYTON 1SSE      N/A     70  45  40 W9        29.92F
KNOX CITY 3NW    N/A     71  40  33 S6        29.91F
LK A HENRY 1NW   N/A     72  39  29 W12       29.93F
NORTHFIELD 1S    N/A     69  41  35 NW2       29.89F
ODELL 4ENE       N/A     68  43  41 N6        29.89F
PADUCAH 10SW     N/A     71  41  33 W5        29.90F
POST 1NE         N/A     74  35  24 SW12      29.93F
RRING SPRGS 3N   N/A     71  40  31 W12       29.91F
SEYMOUR 3NW      N/A     69  43  39 W6        29.89F
SPUR 1W          N/A     72  34  24 W10       29.91F
WEINERT 2NNE     N/A     70  44  38 SW5       29.91F
WHITE RVR 6NE    N/A     73  37  26 W12       29.92F
$$

TXZ052-054-060>062-072-078-127-140-154-169-241700-
TEXAS TECH WEST TEXAS MESONET/PERMIAN BASIN/
CONCHO VALLEY/BIG COUNTRY/EDWARDS PLATEAU

CITY           SKY/WX    TMP DP  RH WIND       PRES   REMARKS
COYANOSA 2N      N/A     75  32  20 S5        29.98F
JUNCTION 1SSW  LGT RAIN  73  46  37 NW9       29.97F
MERTZON 3NNE     N/A     74  41  30 W7        29.97F
SAN ANGELO 7NW   N/A     73  41  31 W7        29.95F
STRLNG CT 4WSW   N/A     73  42  32 W8        29.97F
ST LAWRNCE 5SW   N/A     70  44  39 W9        29.98F
SWEETWATR 11SW   N/A     67  47  47 W10       29.97S
WALL 1E          N/A     70  51  51 W9        29.96F
$$

TXZ055-058-074-075-080-082-241700-
TEXAS TECH WEST TEXAS MESONET/FAR WEST/SOUTHWEST MOUNTAINS/TRANS PECOS

CITY           SKY/WX    TMP DP  RH WIND       PRES   REMARKS
PRSMN GAP BBNP   N/A     73  39  29 E6        30.00F
GUADLPE MTN NP   N/A     62  35  36 SW20      30.07F
$$




USA.gov is the U.S. government's official web portal to all federal, state and local government web resources and services.